Regional Weather Roundup
Issued by NWS

Home | Current Version | Previous Version | Text Only | Print | Product List | Glossary On
Versions: 1 2 3 4 5 6 7 8 9 10 11 12 13 14 15 16 17 18 19 20 21 22 23 24 25 26 27 28 29 30 31 32 33 34 35 36 37 38 39 40 41 42 43 44 45 46 47 48 49 50
000
ASUS43 KLMK 301002
RWRKY
KENTUCKY REGIONAL WEATHER ROUNDUP
NATIONAL WEATHER SERVICE LOUISVILLE KY
600 AM EDT MON MAR 30 2015

NOTE "FAIR" INDICATES FEW OR NO CLOUDS BELOW 12,000 FEET
WITH NO SIGNIFICANT WEATHER AND/OR OBSTRUCTIONS TO VISIBILITY.

KYZ001>023-026-027-061>063-070>075-301100-
WESTERN AND SOUTH CENTRAL KENTUCKY

CITY           SKY/WX    TMP DP  RH WIND       PRES   REMARKS
PADUCAH        CLEAR     49  41  74 NW5       30.09R
HENDERSON      CLEAR     43  37  81 NW6       30.07R
OWENSBORO      CLEAR     45  41  86 NW7       30.07R
HOPKINSVILLE   CLEAR     49  44  83 W5        30.08R
BOWLING GREEN  PTCLDY    46  43  89 SW3       30.06R
GLASGOW        NOT AVBL
$$

KYZ024-025-028>034-038-045-046-053-301100-
NORTH CENTRAL KENTUCKY

CITY           SKY/WX    TMP DP  RH WIND       PRES   REMARKS
LOUISVILLE/SDF PTCLDY    48  41  76 NW6       30.04R
LOUISVILLE/LOU CLEAR     48  41  76 NW7       30.04R
FORT KNOX      NOT AVBL
$$

KYZ035>037-039>044-047>052-055>060-089>105-301100-
NORTHEAST KENTUCKY

CITY           SKY/WX    TMP DP  RH WIND       PRES   REMARKS
LEXINGTON      PTCLDY    47  41  80 NW10      30.02R
COVINGTON      CLEAR     40  33  76 W5        29.99R
FRANKFORT      MOCLDY    48  40  73 NW6       30.02R
$$

KYZ054-064>069-076>088-106>120-301100-
SOUTHEAST KENTUCKY

CITY           SKY/WX    TMP DP  RH WIND       PRES   REMARKS
JACKSON        CLOUDY    45  42  89 SW9       29.99S
LONDON         CLOUDY    46  41  82 SW3       30.02F
SOMERSET       NOT AVBL
MIDDLESBORO    CLOUDY    46  44  93 CALM      30.03F
MONTICELLO     CLOUDY    47  44  89 CALM      30.06S
$$



USA.gov is the U.S. government's official web portal to all federal, state and local government web resources and services.